Regional Weather Roundup
Issued by NWS

Home | Current Version | Previous Version | Text Only | Print | Product List | Glossary Off
Versions: 1 2 3 4 5 6 7 8 9 10 11 12 13 14 15 16 17 18 19 20 21 22 23 24 25 26 27 28 29 30 31 32 33 34 35 36 37 38 39 40 41 42 43 44 45 46 47 48 49 50

000
ASUS44 KMEG 282110
RWRTN
TENNESSEE HOURLY STATE WEATHER ROUNDUP
NATIONAL WEATHER SERVICE MEMPHIS TN
400 PM CDT TUE MAR 28 2017

TNZ002-004-019-021-049-052-054-088>092-282200-
WEST TENNESSEE

CITY           SKY/WX    TMP DP  RH WIND       PRES   REMARKS
MEMPHIS INTL   MOSUNNY   75  55  49 VRB3      29.95F
NWS MEMPHIS      N/A     77 N/A N/A MISG        N/A
JACKSON        MOSUNNY   72  57  59 N9        29.99F
DYERSBURG      MOSUNNY   71  55  56 NE7       30.00F
SOMERVILLE     PTSUNNY   75  57  53 VRB7G14   29.96F
BOLIVAR        MOSUNNY   73  55  53 VRB5      29.96F
PARIS          PTSUNNY   63  54  72 NE8       30.02S
HUNTINGDON     SUNNY     70  54  56 CALM      29.99F
SAVANNAH       MOSUNNY   73  55  53 CALM      29.96F
$$

TNZ008-025-027-028-033-062-065-066-282200-
NORTH MIDDLE TENNESSEE

CITY           SKY/WX    TMP DP  RH WIND       PRES   REMARKS
NASHVILLE      PTSUNNY   71  51  49 NE9       30.00F
PORTLAND       CLOUDY    64  54  68 N6        30.02S
CLARKSVILLE    PTSUNNY   64  53  67 N9        30.02F
SMYRNA         MOSUNNY   71  53  52 N8        30.00F
COOKEVILLE     CLOUDY    66  54  63 NW5       30.00S
GALLATIN       CLOUDY    66  54  63 CALM      30.03F
CROSSVILLE     CLOUDY    62  50  64 VRB7      30.03S
$$

TNZ061-075-076-078-094-096-097-282200-
SOUTH MIDDLE TENNESSEE

CITY           SKY/WX    TMP DP  RH WIND       PRES   REMARKS
FAYETTEVILLE   MOSUNNY   72  55  56 VRB3G12   29.99F
TULLAHOMA      MOSUNNY   70  54  56 W8          N/A
WINCHESTER     MOSUNNY   70  55  60 VRB7      30.00S
MCMINNVILLE    CLOUDY    66  54  63 N6        30.01F
COLUMBIA       SUNNY     73  55  53 CALM      29.96F
SHELBYVILLE    PTSUNNY   70  57  64 VRB3      30.01S
$$

TNZ017-018-042-046-047-282200-
NORTHEAST TENNESSEE

CITY           SKY/WX    TMP DP  RH WIND       PRES   REMARKS
TRI CITIES     CLOUDY    67  49  52 W13       29.97S
ELIZABETHTON   CLOUDY    66  52  59 W7G15     29.97R
$$

TNZ012-013-036-069-073-074-282200-
CENTRAL EAST TENNESSEE

CITY           SKY/WX    TMP DP  RH WIND       PRES   REMARKS
KNOXVILLE      MOSUNNY   72  52  49 W7        29.96S
OAK RIDGE      MOSUNNY   73  50  44 SW6       29.97F
DOWNTOWN KNOXV PTSUNNY   73  52  46 VRB6G13   29.96S
GATLINBURG     PTSUNNY   70  52  52 W7        29.96S
MORRISTOWN     MOSUNNY   70  54  56 W7        29.97S
JACKSBORO      CLOUDY    70  50  49 VRB5      30.00S
$$

TNZ083-085-099-282200-
SOUTHEAST TENNESSEE

CITY           SKY/WX    TMP DP  RH WIND       PRES   REMARKS
CHATTANOOGA    MOSUNNY   77  51  40 W12G22    29.96F
$$

SKY/WX REPORTED AS FAIR MEANS FEW OR NO CLOUDS BELOW
12 THOUSAND FEET.




USA.gov is the U.S. government's official web portal to all federal, state and local government web resources and services.